Wind_Speed
106 104 101 92 87 89 86 82 80 80 76 75 74 74 71 67 69 71 70 73 75 75 76 76 77 77 79 79 79 79 77 80 82 82 86 88 91 94 96 98 101 102 104
108 104 100 96 91 88 92 91 89 87 86 85 83 81 80 80 79 77 78 78 77 78 78 79 80 80 79 80 78 79 80 82 84 86 91 91 94 98 101 101 102 104 109
109 105 102 99 95 93 91 90 92 91 88 87 87 86 85 84 84 82 81 79 80 79 79 79 80 80 80 79 79 82 83 85 90 93 98 97 97 99 104 106 106 111 115
110 107 104 102 99 97 93 91 90 91 91 90 88 87 86 86 86 84 83 82 81 81 81 82 83 82 82 83 86 87 91 93 94 99 101 100 101 104 103 105 112 116 114
110 110 108 104 101 98 95 93 92 91 91 91 90 89 88 87 87 86 85 85 85 85 85 85 85 85 85 85 88 91 93 95 98 100 102 106 107 106 108 110 115 112 106
110 110 110 108 105 102 101 99 97 94 93 92 91 91 90 90 89 88 87 87 88 88 88 87 87 87 87 90 90 92 95 98 100 103 106 108 108 109 114 117 115 102 99
106 106 108 110 109 107 104 103 101 98 96 94 94 93 92 92 93 92 90 89 87 87 88 87 88 89 90 90 93 96 99 100 104 107 107 109 111 115 116 116 103 96 96
104 104 106 110 111 112 111 108 105 103 101 99 97 96 96 95 95 95 95 94 93 93 93 93 93 95 97 99 99 101 103 105 106 109 109 110 113 114 112 100 97 96 96
106 105 105 109 111 112 112 112 110 107 105 104 103 101 100 98 96 95 96 96 96 96 97 98 98 100 100 103 103 106 106 109 110 109 110 110 111 105 97 95 97 97 85
107 106 107 106 107 108 110 112 113 112 111 110 109 107 105 104 101 99 99 98 97 97 98 99 100 102 104 105 107 107 109 106 105 107 106 109 102 95 93 96 99 89 80
102 103 106 105 105 105 106 107 109 111 113 113 112 112 110 109 108 105 105 105 104 104 103 105 107 106 108 108 107 108 104 106 105 106 108 96 92 93 96 100 90 81 74
91 93 98 100 103 104 106 106 105 105 106 109 113 114 113 111 112 110 110 110 110 110 110 110 109 111 106 106 101 103 103 107 103 105 91 89 93 96 99 88 78 75 69
83 86 89 92 96 97 99 101 102 102 102 104 104 105 109 111 112 111 110 110 109 110 110 108 105 106 101 100 101 103 105 100 91 86 86 91 95 99 89 78 73 70 66
78 78 80 85 89 91 92 93 93 92 92 95 98 100 99 100 99 100 101 101 101 101 99 101 97 96 99 101 102 92 85 82 81 85 90 94 99 88 77 73 69 65 64
72 75 76 79 81 84 84 84 84 84 87 90 91 93 94 95 96 97 98 97 96 97 94 94 96 99 93 85 83 77 76 79 84 88 93 98 86 74 71 68 63 63 62
62 65 70 75 76 75 77 79 80 81 82 83 83 84 85 86 87 88 88 89 88 90 90 86 81 76 77 74 71 74 78 82 87 91 94 84 72 70 66 64 63 61 62
57 62 63 67 71 71 72 73 74 74 75 75 74 74 75 75 76 77 79 79 77 74 74 71 69 70 70 67 71 78 81 86 91 91 81 70 70 64 63 61 57 61 62
54 56 59 60 62 65 67 67 68 70 69 67 67 67 66 67 68 67 67 70 69 66 65 66 65 63 64 70 76 81 85 91 83 79 68 67 62 61 58 56 60 61 62
49 51 55 59 60 60 62 63 64 65 64 63 64 65 65 66 64 65 63 63 60 59 60 57 60 66 71 73 78 84 84 79 74 67 64 59 58 56 56 59 61 62 62
46 49 52 55 58 59 59 59 60 61 61 63 64 66 66 64 63 59 56 54 55 53 56 61 67 69 74 79 79 76 74 66 66 61 56 55 54 56 58 60 61 62 62
44 45 46 48 51 51 53 55 57 57 58 58 58 57 57 55 54 54 54 55 55 59 63 66 69 76 73 70 69 63 62 61 56 52 52 52 55 57 58 59 61 62 62
40 42 43 44 46 47 49 51 53 54 55 57 58 56 57 59 59 62 60 64 65 72 76 67 61 63 64 59 57 56 55 53 49 49 51 54 55 56 58 60 60 60 62
36 38 40 40 40 41 41 43 44 46 49 53 55 58 61 63 61 58 56 61 61 56 57 59 61 56 51 50 50 50 49 49 49 49 52 53 55 57 57 58 59 59 60
39 37 38 38 38 37 37 36 37 37 38 40 42 43 44 45 45 47 49 51 53 53 57 51 46 46 45 46 48 49 48 48 49 50 52 54 55 55 56 57 58 59 63
38 41 40 39 40 40 41 41 42 42 44 45 47 47 47 49 50 50 51 52 54 51 44 43 44 44 45 47 48 48 48 48 49 51 52 52 53 54 56 56 58 63 66
39 39 38 39 40 39 40 41 41 42 44 44 43 43 44 44 45 46 48 46 42 40 42 43 44 47 49 49 48 49 47 48 49 50 50 51 52 54 56 58 61 65 69
Wind_Direction
221 223 224 225 227 228 232 235 235 238 240 242 246 250 251 254 258 261 264 267 270 273 275 277 281 283 287 291 293 296 296 297 298 299 301 302 302 303 305 307 310 311 310
223 223 226 228 229 230 230 233 238 239 241 245 248 251 254 258 260 261 265 268 270 273 276 279 282 285 288 291 292 291 295 296 298 298 299 300 302 303 306 308 308 308 310
223 225 226 228 229 231 234 234 236 239 242 245 247 250 253 256 259 263 266 269 271 274 275 277 281 284 286 288 289 291 294 294 296 297 298 299 300 303 306 307 308 308 311
224 225 228 228 230 232 234 236 237 238 240 243 246 249 252 255 258 261 264 267 272 275 277 280 281 283 284 286 288 290 292 293 296 297 298 300 302 303 306 306 308 310 311
227 226 227 230 232 234 236 238 239 240 242 242 244 247 250 254 257 260 263 266 268 271 274 276 278 280 283 285 287 290 292 295 296 297 299 301 304 306 306 306 309 310 308
230 228 229 229 231 234 236 237 239 241 243 245 247 248 250 253 256 259 261 264 268 271 273 276 278 281 283 286 289 291 293 295 296 298 302 302 305 304 306 307 309 307 305
233 233 232 232 233 234 235 238 240 242 244 245 248 250 252 254 256 259 262 265 267 269 272 275 277 280 283 286 288 291 293 295 297 300 301 303 303 304 307 308 307 307 307
234 235 235 236 236 236 237 238 240 242 245 247 249 250 252 254 257 259 262 264 266 269 272 275 278 280 283 286 289 290 291 295 296 299 301 302 303 305 306 306 305 305 307
234 235 236 236 237 238 239 240 241 243 245 246 249 251 253 255 257 260 262 265 267 270 273 276 278 280 283 284 287 288 292 294 297 299 300 302 303 303 304 306 306 307 308
235 236 238 238 239 240 240 241 243 244 245 247 248 251 253 255 258 259 262 264 268 271 273 276 279 281 284 286 288 291 293 297 297 299 301 303 302 304 305 306 309 309 308
238 240 240 241 242 243 244 245 246 247 247 248 250 252 254 256 258 260 263 265 268 271 274 276 279 282 284 287 289 292 294 297 297 298 301 301 302 304 305 308 308 306 307
237 236 240 242 243 244 245 247 248 249 250 252 252 253 255 256 259 261 263 265 268 271 273 275 279 280 284 287 289 292 294 296 296 298 300 301 302 303 306 307 305 303 304
237 236 237 239 241 242 245 248 250 251 252 253 254 255 257 259 260 262 263 265 268 269 272 274 278 280 285 284 289 292 293 293 294 297 298 299 300 304 305 304 302 301 302
239 240 240 241 242 243 244 246 248 251 252 253 254 256 258 260 262 263 264 266 268 270 273 275 280 280 282 286 289 288 290 291 294 295 296 298 302 304 302 301 300 300 302
237 238 240 241 242 244 246 247 249 252 254 256 258 259 260 262 264 265 266 268 270 272 275 277 279 280 284 284 284 287 289 291 292 294 296 301 302 300 299 299 298 301 301
235 238 239 239 241 243 245 247 248 249 250 252 255 257 258 260 262 265 266 267 270 271 275 277 279 279 280 284 285 286 287 290 291 294 300 300 298 297 299 299 299 299 299
233 234 236 238 240 242 244 246 248 250 250 251 252 255 257 259 262 264 265 267 270 271 274 275 275 277 281 284 284 283 286 289 293 297 298 297 296 297 298 298 298 299 302
234 233 234 236 239 242 244 245 246 249 251 252 253 255 257 259 261 262 263 265 270 271 270 273 276 281 282 279 282 283 288 293 294 296 295 294 294 296 296 298 300 302 303
230 232 232 233 236 239 242 244 245 248 250 252 254 255 256 258 260 263 265 267 270 268 269 276 279 277 277 282 285 287 290 291 293 293 292 291 293 293 296 299 301 303 305
230 231 232 234 236 238 240 242 244 245 247 249 252 254 257 259 261 264 267 267 268 270 269 273 275 277 280 283 286 287 289 289 289 290 289 292 292 295 299 301 303 304 304
231 233 234 235 238 240 241 244 246 247 247 248 250 254 255 258 258 260 263 263 266 267 272 277 278 279 282 282 286 287 287 288 288 287 290 292 295 299 300 301 302 303 305
238 238 238 239 240 241 241 244 246 247 248 250 251 254 255 254 257 259 265 263 263 268 273 278 278 280 282 283 284 284 286 287 286 288 292 296 298 298 300 302 304 307 310
241 240 240 241 242 243 244 244 244 245 246 248 251 252 253 256 259 261 262 264 268 270 273 276 278 279 280 282 283 283 285 285 287 292 297 296 298 299 300 302 306 308 309
244 243 241 241 242 244 244 246 247 246 246 245 246 247 250 254 258 261 264 268 269 270 276 274 274 278 277 283 287 286 286 289 291 294 295 297 299 300 301 306 307 308 311
244 245 248 249 248 247 246 245 244 245 246 249 252 255 255 257 260 264 266 269 270 272 269 274 276 277 281 285 288 290 288 290 293 294 296 297 299 302 304 306 308 312 313
242 245 248 249 249 251 249 249 248 249 251 254 255 255 255 258 260 262 265 268 266 269 273 273 277 280 282 284 285 287 291 292 293 294 296 298 301 303 302 304 309 313 314
Height
10690 10700 10711 10723 10736 10746 10755 10761 10765 10769 10775 10780 10786 10790 10795 10799 10800 10802 10804 10804 10804 10805 10805 10803 10801 10801 10799 10796 10792 10788 10785 10782 10779 10776 10771 10765 10758 10748 10744 10737 10727 10719 10712
10677 10691 10704 10716 10727 10734 10740 10747 10751 10759 10765 10770 10775 10781 10785 10787 10788 10791 10792 10792 10791 10791 10792 10790 10789 10788 10787 10784 10780 10776 10773 10767 10763 10760 10757 10753 10744 10735 10728 10723 10714 10705 10695
10669 10681 10692 10703 10712 10719 10725 10733 10739 10746 10753 10758 10764 10769 10773 10775 10776 10779 10782 10781 10779 10780 10779 10779 10778 10776 10775 10771 10766 10763 10761 10755 10750 10745 10741 10741 10735 10725 10711 10703 10696 10686 10675
10656 10668 10677 10687 10698 10706 10713 10719 10727 10734 10741 10746 10752 10756 10760 10761 10762 10766 10768 10768 10767 10767 10767 10767 10765 10764 10762 10759 10755 10750 10746 10742 10738 10729 10722 10719 10717 10711 10704 10688 10675 10663 10653
10637 10650 10661 10674 10684 10693 10702 10708 10713 10719 10726 10733 10739 10744 10748 10749 10750 10753 10755 10755 10756 10757 10756 10754 10753 10752 10751 10746 10741 10736 10730 10725 10721 10713 10705 10699 10694 10686 10680 10676 10661 10646 10633
10618 10633 10646 10657 10666 10675 10682 10690 10698 10704 10711 10717 10724 10730 10735 10738 10740 10741 10743 10743 10743 10743 10742 10742 10739 10737 10734 10731 10727 10720 10715 10711 10703 10697 10688 10680 10674 10665 10657 10650 10641 10630 10617
10606 10622 10632 10641 10649 10659 10668 10676 10682 10690 10697 10703 10708 10714 10718 10722 10725 10727 10729 10730 10730 10729 10730 10729 10727 10725 10722 10717 10712 10707 10700 10695 10686 10679 10672 10663 10655 10646 10636 10626 10617 10607 10598
10594 10604 10615 10625 10633 10642 10651 10659 10668 10676 10683 10688 10693 10697 10702 10706 10709 10711 10712 10714 10714 10714 10713 10714 10711 10708 10707 10705 10699 10694 10687 10680 10673 10666 10656 10648 10636 10626 10617 10608 10597 10588 10577
10577 10586 10595 10602 10614 10625 10634 10644 10653 10661 10668 10673 10678 10681 10685 10690 10694 10697 10698 10699 10699 10699 10697 10696 10695 10693 10690 10688 10684 10678 10673 10665 10656 10647 10638 10628 10619 10608 10598 10587 10577 10567 10559
10561 10571 10578 10588 10599 10608 10617 10626 10635 10644 10650 10656 10660 10665 10670 10674 10678 10682 10683 10683 10684 10684 10682 10679 10677 10674 10671 10666 10662 10657 10651 10645 10636 10628 10618 10609 10599 10589 10579 10568 10557 10546 10538
10542 10556 10565 10576 10586 10593 10601 10610 10617 10626 10632 10638 10645 10649 10654 10658 10660 10665 10667 10669 10669 10668 10666 10663 10660 10657 10653 10650 10643 10638 10631 10624 10616 10607 10600 10590 10580 10572 10562 10550 10539 10529 10521
10527 10540 10548 10559 10568 10576 10582 10590 10599 10606 10613 10620 10626 10630 10635 10641 10643 10648 10649 10652 10652 10652 10650 10646 10645 10641 10638 10633 10626 10619 10613 10606 10597 10590 10581 10572 10563 10555 10543 10533 10523 10514 10507
10507 10518 10529 10536 10546 10556 10564 10571 10580 10588 10595 10601 10606 10611 10616 10622 10626 10629 10631 10633 10634 10633 10632 10629 10628 10624 10621 10614 10610 10603 10595 10589 10581 10573 10565 10557 10549 10538 10526 10517 10508 10500 10494
10494 10503 10512 10519 10527 10536 10545 10553 10560 10567 10574 10581 10586 10591 10597 10601 10605 10608 10611 10612 10613 10613 10612 10610 10609 10605 10601 10596 10592 10585 10579 10573 10565 10558 10550 10541 10531 10520 10510 10502 10494 10488 10481
10479 10487 10497 10504 10511 10519 10529 10536 10544 10550 10556 10562 10568 10573 10577 10581 10584 10587 10590 10592 10593 10592 10593 10591 10589 10587 10582 10578 10574 10568 10562 10556 10549 10541 10532 10523 10513 10503 10495 10487 10481 10474 10468
10468 10476 10482 10488 10495 10504 10512 10520 10527 10534 10540 10545 10550 10555 10559 10562 10564 10568 10570 10572 10573 10573 10573 10572 10571 10568 10565 10561 10557 10551 10545 10539 10532 10524 10515 10505 10497 10489 10481 10473 10467 10462 10456
10455 10461 10469 10476 10482 10490 10497 10504 10511 10516 10522 10528 10533 10537 10540 10544 10547 10550 10552 10553 10555 10555 10556 10555 10553 10551 10548 10544 10540 10534 10529 10521 10514 10506 10498 10489 10482 10475 10467 10461 10455 10450 10444
10444 10450 10457 10464 10470 10476 10483 10490 10495 10499 10505 10511 10516 10520 10524 10528 10531 10533 10535 10537 10538 10539 10539 10538 10537 10534 10531 10528 10523 10518 10511 10505 10496 10489 10482 10474 10467 10461 10454 10449 10443 10437 10430
10434 10441 10446 10450 10456 10463 10469 10475 10480 10485 10491 10496 10501 10505 10509 10512 10515 10518 10520 10522 10523 10523 10524 10522 10521 10519 10516 10512 10506 10500 10494 10487 10480 10474 10467 10460 10454 10448 10444 10437 10431 10423 10415
10424 10429 10434 10439 10444 10449 10455 10462 10467 10472 10477 10482 10487 10490 10494 10497 10500 10503 10505 10507 10508 10508 10508 10508 10505 10503 10499 10495 10490 10484 10477 10471 10465 10459 10452 10447 10441 10436 10431 10424 10417 10409 10401
10414 10418 10423 10428 10433 10439 10444 10449 10454 10459 10464 10469 10473 10477 10480 10484 10487 10490 10492 10494 10495 10495 10494 10492 10489 10487 10483 10478 10473 10468 10462 10456 10450 10445 10440 10435 10430 10424 10418 10411 10403 10396 10388
10407 10411 10415 10419 10423 10429 10434 10439 10443 10447 10451 10456 10460 10464 10468 10472 10475 10478 10479 10481 10480 10479 10478 10476 10473 10470 10467 10462 10458 10453 10448 10443 10438 10433 10429 10424 10418 10411 10404 10397 10389 10382 10374
10399 10403 10406 10410 10414 10419 10424 10428 10432 10436 10440 10444 10448 10452 10456 10459 10461 10463 10463 10464 10464 10463 10462 10460 10459 10455 10452 10448 10444 10439 10435 10431 10427 10422 10417 10411 10405 10398 10391 10384 10377 10369 10361
10391 10394 10398 10402 10406 10410 10413 10417 10421 10425 10429 10432 10436 10439 10443 10445 10447 10449 10450 10450 10450 10449 10448 10445 10443 10441 10438 10435 10430 10427 10423 10419 10414 10410 10404 10398 10392 10385 10378 10371 10364 10356 10348
10383 10386 10390 10393 10397 10401 10405 10408 10412 10416 10419 10422 10425 10427 10430 10432 10434 10435 10436 10436 10436 10434 10433 10431 10429 10427 10425 10422 10418 10415 10410 10406 10401 10397 10391 10386 10379 10373 10366 10359 10351 10342 10333
10373 10377 10381 10384 10387 10390 10393 10397 10400 10403 10406 10409 10412 10415 10417 10419 10421 10422 10422 10422 10421 10421 10420 10418 10417 10415 10412 10409 10405 10401 10397 10394 10389 10385 10379 10374 10367 10360 10352 10346 10338 10328 10318